Regional Weather Roundup
Issued by NWS Memphis, TN

Home | Current Version | Previous Version | Text Only | Print | Product List | Glossary On
Versions: 1 2 3 4 5 6 7 8 9 10 11 12 13 14 15 16 17 18 19 20 21 22 23 24 25 26 27 28 29 30 31 32 33 34 35 36 37 38 39 40 41 42 43 44 45 46 47 48 49 50
000
ASUS44 KMEG 260010
RWRMEG
MEMPHIS CWA HOURLY WEATHER ROUNDUP
NATIONAL WEATHER SERVICE MEMPHIS TN
700 PM CDT MON SEP 25 2017

...WEST TENNESSEE...

CITY           SKY/WX    TMP DP  RH WIND       PRES   REMARKS
MEMPHIS INTL   PTCLDY    84  63  49 E8        29.92R
6HR MIN TEMP:  84; 6HR MAX TEMP:  89;

NWS MEMPHIS      N/A     80 N/A N/A MISG        N/A
JACKSON        PTCLDY    78  71  79 CALM      29.94R
6HR MIN TEMP:  78; 6HR MAX TEMP:  89;

COVINGTON      CLEAR     79  68  69 SE3       29.92R
SOMERVILLE     CLEAR     77  70  78 CALM      29.92S
BOLIVAR        PTCLDY    77  70  78 CALM      29.93R
LEXINGTON      CLEAR     77  72  83 CALM      29.93S
SELMER         CLEAR     75  72  88 CALM      29.93S
SAVANNAH       CLEAR     77  72  83 CALM      29.92S
DYERSBURG      CLEAR     77  69  76 S5        29.93S
6HR MIN TEMP:  77; 6HR MAX TEMP:  90;

PARIS          CLEAR     75  68  78 CALM      29.93S
HUNTINGDON     CLEAR     77  68  73 CALM      29.92S


...EASTERN ARKANSAS...

CITY           SKY/WX    TMP DP  RH WIND       PRES   REMARKS
JONESBORO      CLEAR     83  67  58 E5        29.89F
6HR MIN TEMP:  83; 6HR MAX TEMP:  91;

WEST MEMPHIS   CLEAR     81  66  60 SE7       29.89S
6HR MIN TEMP:  78; 6HR MAX TEMP:  90;

BATESVILLE     CLEAR     82  65  56 E3        29.91S
6HR MIN TEMP:  82; 6HR MAX TEMP:  90;

NEWPORT        CLEAR     82  65  56 SE5       29.90S
6HR MIN TEMP:  82; 6HR MAX TEMP:  90;

WALNUT RIDGE   CLEAR     81  66  61 SE6       29.90S
6HR MIN TEMP:  81; 6HR MAX TEMP:  91;

BLYTHEVILLE    CLEAR     81  69  67 CALM      29.92S
6HR MIN TEMP:  81; 6HR MAX TEMP:  89;

SEARCY         CLEAR     82  68  62 E5        29.90F
6HR MIN TEMP:  82; 6HR MAX TEMP:  92;

STUTTGART      CLEAR     84  65  52 E6        29.89S
6HR MIN TEMP:  84; 6HR MAX TEMP:  91;

PINE BLUFF     CLEAR     80  64  58 E6        29.88S
6HR MIN TEMP:  80; 6HR MAX TEMP:  90;

MONTICELLO     CLEAR     81  70  69 CALM      29.88S
6HR MIN TEMP:  81; 6HR MAX TEMP:  90;



...NORTH MISSISSIPPI...

CITY           SKY/WX    TMP DP  RH WIND       PRES   REMARKS
TUPELO         CLEAR     82  62  50 E3        29.91S
6HR MIN TEMP:  82; 6HR MAX TEMP:  89;

OXFORD         PTCLDY    81  66  61 VRB5      29.93R
BATESVILLE     CLEAR     77  70  79 CALM      29.93R
6HR MIN TEMP:  77; 6HR MAX TEMP:  89;

OLIVE BRANCH   PTCLDY   N/A N/A N/A CALM      29.91R
TUNICA           N/A    N/A N/A N/A E3        29.90F
CLARKSDALE       N/A     81  72  74 E5        29.89F
GREENWOOD      CLOUDY    81  67  62 E6        29.90R
6HR MIN TEMP:  81; 6HR MAX TEMP:  90;

COLUMBUS       MOCLDY    81  70  68 E3        29.90R
6HR MIN TEMP:  81; 6HR MAX TEMP:  88;

STARKVILLE     MOCLDY    75  72  88 CALM      29.92S
GOLDEN TRIANGL PTCLDY    81  68  65 CALM      29.91R


...SOUTHEAST MISSOURI...

CITY           SKY/WX    TMP DP  RH WIND       PRES   REMARKS
KENNETT        CLEAR     81  66  61 SE3       29.90S HAZE
MALDEN         CLEAR     86  61  42 SE6       29.93S
WEST PLAINS    CLEAR     81  61  50 SE6       29.95S
6HR MIN TEMP:  81; 6HR MAX TEMP:  88;

POPLAR BLUFF   CLEAR     79  65  62 CALM      29.91S
6HR MIN TEMP:  79; 6HR MAX TEMP:  90;

CAPE GIRARDEAU CLEAR     80  63  55 SE5       29.92R
6HR MIN TEMP:  80; 6HR MAX TEMP:  90;



...NORTHWEST ALABAMA...

CITY           SKY/WX    TMP DP  RH WIND       PRES   REMARKS
MUSCLE SHOALS  CLEAR     78  66  66 CALM      29.94S
6HR MIN TEMP:  78; 6HR MAX TEMP:  89;



...MIDDLE TENNESSEE...

CITY           SKY/WX    TMP DP  RH WIND       PRES   REMARKS
NASHVILLE      PTCLDY    83  65  54 NE5       29.94S
6HR MIN TEMP:  83; 6HR MAX TEMP:  91;

CLARKSVILLE    CLEAR     77  65  66 CALM      29.94S
6HR MIN TEMP:  77; 6HR MAX TEMP:  89;

COLUMBIA       MOCLDY    79 N/A N/A CALM      29.93R


...WESTERN KENTUCKY...

CITY           SKY/WX    TMP DP  RH WIND       PRES   REMARKS
PADUCAH        CLEAR     78  66  66 CALM      29.92S
6HR MIN TEMP:  78; 6HR MAX TEMP:  92;

FORT CAMPBELL  CLEAR     81  65  57 CALM      29.93S
6HR MIN TEMP:  81; 6HR MAX TEMP:  88;



...CENTRAL ARKANSAS...

CITY           SKY/WX    TMP DP  RH WIND       PRES   REMARKS
LITTLE ROCK    PTCLDY    82  66  58 S3        29.88S
6HR MIN TEMP:  82; 6HR MAX TEMP:  89;



SKY/WX REPORTED AS FAIR MEANS FEW OR NO CLOUDS BELOW
12 THOUSAND FEET.




USA.gov is the U.S. government's official web portal to all federal, state and local government web resources and services.